When you browse on this site, cookies collect data to enhance your experience and personalize the content and advertising you see.
Visit our Privacy Policy to learn more. By continuing to use the site, you agree to this use of cookies and data.

Meteo orario Ali Bayramli

Oggi, 11 Agosto, Martedi

Tempo Temperatura Precipitazioni Vento Pressione Umidità
00:00 +26°C° 0 mm 4 m/s 755 mm Hg 47%
01:00 +26°C° 0 mm 4 m/s 755 mm Hg 49%
02:00 +26°C° 0 mm 5 m/s 755 mm Hg 50%
03:00 +25°C° 0 mm 5 m/s 755 mm Hg 53%
04:00 +25°C° 0 mm 5 m/s 755 mm Hg 53%
05:00 +26°C° 0 mm 6 m/s 755 mm Hg 54%
06:00 +26°C° 0 mm 6 m/s 755 mm Hg 54%
07:00 +27°C° 0 mm 6 m/s 755 mm Hg 48%
08:00 +29°C° 0 mm 6 m/s 755 mm Hg 42%
09:00 +32°C° 0 mm 6 m/s 755 mm Hg 36%
10:00 +33°C° 0 mm 6 m/s 755 mm Hg 33%
11:00 +34°C° 0 mm 6 m/s 755 mm Hg 30%
12:00 +35°C° 0 mm 6 m/s 755 mm Hg 26%
13:00 +35°C° 0 mm 6 m/s 754 mm Hg 26%
14:00 +35°C° 0 mm 6 m/s 754 mm Hg 26%
15:00 +36°C° 0 mm 6 m/s 753 mm Hg 26%
16:00 +34°C° 0 mm 7 m/s 753 mm Hg 29%
17:00 +33°C° 0 mm 7 m/s 753 mm Hg 32%
18:00 +32°C° 0 mm 8 m/s 754 mm Hg 35%
19:00 +30°C° 0 mm 7 m/s 754 mm Hg 38%
20:00 +28°C° 0 mm 7 m/s 754 mm Hg 41%
21:00 +27°C° 0 mm 6 m/s 754 mm Hg 43%
22:00 +27°C° 0 mm 6 m/s 754 mm Hg 45%
23:00 +27°C° 0 mm 5 m/s 755 mm Hg 46%

Domani, 12 Agosto, Mercoledi

Tempo Temperatura Precipitazioni Vento Pressione Umidità
00:00 +26°C° 0 mm 4 m/s 755 mm Hg 47%
01:00 +26°C° 0 mm 4 m/s 755 mm Hg 48%
02:00 +25°C° 0 mm 4 m/s 755 mm Hg 50%
03:00 +25°C° 0 mm 4 m/s 754 mm Hg 51%
04:00 +25°C° 0 mm 4 m/s 755 mm Hg 50%
05:00 +25°C° 0 mm 4 m/s 755 mm Hg 48%
06:00 +26°C° 0 mm 4 m/s 755 mm Hg 47%
07:00 +28°C° 0 mm 4 m/s 755 mm Hg 41%
08:00 +30°C° 0 mm 4 m/s 756 mm Hg 35%
09:00 +32°C° 0 mm 4 m/s 756 mm Hg 29%
10:00 +34°C° 0 mm 4 m/s 755 mm Hg 28%
11:00 +35°C° 0 mm 4 m/s 755 mm Hg 26%
12:00 +36°C° 0 mm 4 m/s 755 mm Hg 25%
13:00 +36°C° 0 mm 5 m/s 755 mm Hg 26%
14:00 +36°C° 0 mm 6 m/s 755 mm Hg 26%
15:00 +37°C° 0 mm 8 m/s 754 mm Hg 27%
16:00 +34°C° 0 mm 8 m/s 755 mm Hg 30%
17:00 +33°C° 0 mm 9 m/s 755 mm Hg 33%
18:00 +31°C° 0 mm 9 m/s 755 mm Hg 36%
19:00 +31°C° 0 mm 8 m/s 755 mm Hg 38%
20:00 +29°C° 0 mm 7 m/s 756 mm Hg 40%
21:00 +28°C° 0 mm 7 m/s 756 mm Hg 42%
22:00 +28°C° 0 mm 6 m/s 756 mm Hg 42%
23:00 +27°C° 0 mm 5 m/s 756 mm Hg 43%

Dopodomani, 13 Agosto, Giovedi

Tempo Temperatura Precipitazioni Vento Pressione Umidità
00:00 +27°C° 0 mm 4 m/s 756 mm Hg 43%
01:00 +26°C° 0 mm 4 m/s 756 mm Hg 44%
02:00 +26°C° 0 mm 3 m/s 755 mm Hg 45%
03:00 +26°C° 0 mm 3 m/s 755 mm Hg 46%
04:00 +26°C° 0 mm 2 m/s 755 mm Hg 46%
05:00 +26°C° 0 mm 2 m/s 755 mm Hg 47%
06:00 +26°C° 0 mm 2 m/s 755 mm Hg 47%
07:00 +28°C° 0 mm 2 m/s 755 mm Hg 41%
08:00 +29°C° 0 mm 2 m/s 755 mm Hg 35%
09:00 +31°C° 0 mm 2 m/s 755 mm Hg 30%
10:00 +32°C° 0 mm 2 m/s 755 mm Hg 28%
11:00 +34°C° 0 mm 3 m/s 754 mm Hg 26%
12:00 +36°C° 0 mm 3 m/s 754 mm Hg 25%
13:00 +36°C° 0 mm 4 m/s 753 mm Hg 25%
14:00 +36°C° 0 mm 5 m/s 753 mm Hg 26%
15:00 +36°C° 0 mm 5 m/s 752 mm Hg 26%
16:00 +35°C° 0 mm 6 m/s 752 mm Hg 29%
17:00 +34°C° 0 mm 6 m/s 752 mm Hg 31%
18:00 +32°C° 0 mm 6 m/s 753 mm Hg 33%
19:00 +30°C° 0 mm 5 m/s 753 mm Hg 36%
20:00 +29°C° 0 mm 4 m/s 753 mm Hg 38%
21:00 +28°C° 0 mm 4 m/s 754 mm Hg 40%
22:00 +28°C° 0 mm 3 m/s 753 mm Hg 40%
23:00 +27°C° 0 mm 3 m/s 753 mm Hg 41%

14 Agosto, Venerdi

Tempo Temperatura Precipitazioni Vento Pressione Umidità
00:00 +27°C° 0 mm 3 m/s 753 mm Hg 41%
01:00 +26°C° 0 mm 3 m/s 753 mm Hg 40%
02:00 +26°C° 0 mm 2 m/s 753 mm Hg 40%
03:00 +26°C° 0 mm 2 m/s 753 mm Hg 40%
04:00 +26°C° 0 mm 2 m/s 753 mm Hg 41%
05:00 +26°C° 0 mm 2 m/s 753 mm Hg 41%
06:00 +26°C° 0 mm 3 m/s 753 mm Hg 42%
07:00 +28°C° 0 mm 3 m/s 753 mm Hg 37%
08:00 +32°C° 0 mm 4 m/s 753 mm Hg 32%
09:00 +34°C° 0 mm 4 m/s 753 mm Hg 26%
10:00 +35°C° 0 mm 4 m/s 753 mm Hg 25%
11:00 +36°C° 0 mm 4 m/s 753 mm Hg 23%
12:00 +37°C° 0 mm 4 m/s 753 mm Hg 22%
13:00 +38°C° 0 mm 6 m/s 752 mm Hg 23%
14:00 +38°C° 0 mm 7 m/s 752 mm Hg 25%
15:00 +38°C° 0 mm 9 m/s 752 mm Hg 27%
16:00 +35°C° 0 mm 9 m/s 752 mm Hg 33%
17:00 +34°C° 0 mm 9 m/s 752 mm Hg 38%
18:00 +32°C° 0 mm 10 m/s 752 mm Hg 43%
19:00 +31°C° 0 mm 9 m/s 752 mm Hg 45%
20:00 +29°C° 0 mm 9 m/s 753 mm Hg 47%
21:00 +28°C° 0 mm 9 m/s 753 mm Hg 48%
22:00 +28°C° 0 mm 8 m/s 753 mm Hg 48%
23:00 +28°C° 0 mm 7 m/s 753 mm Hg 48%

15 Agosto, Sabato

Tempo Temperatura Precipitazioni Vento Pressione Umidità
00:00 +27°C° 0 mm 6 m/s 753 mm Hg 48%
01:00 +27°C° 0 mm 5 m/s 753 mm Hg 49%
02:00 +27°C° 0 mm 5 m/s 753 mm Hg 50%
03:00 +26°C° 0 mm 4 m/s 753 mm Hg 52%
04:00 +26°C° 0 mm 4 m/s 753 mm Hg 52%
05:00 +26°C° 0 mm 4 m/s 753 mm Hg 53%
06:00 +26°C° 0 mm 3 m/s 753 mm Hg 53%
07:00 +28°C° 0 mm 4 m/s 754 mm Hg 49%
08:00 +29°C° 0 mm 5 m/s 754 mm Hg 45%
09:00 +30°C° 0 mm 6 m/s 754 mm Hg 41%
10:00 +30°C° 0 mm 7 m/s 754 mm Hg 40%
11:00 +32°C° 0 mm 8 m/s 754 mm Hg 38%
12:00 +32°C° 0 mm 8 m/s 754 mm Hg 37%
13:00 +32°C° 0 mm 9 m/s 754 mm Hg 39%
14:00 +32°C° 0 mm 10 m/s 754 mm Hg 41%
15:00 +32°C° 0 mm 12 m/s 754 mm Hg 43%
16:00 +29°C° 0 mm 12 m/s 755 mm Hg 45%
17:00 +28°C° 0 mm 11 m/s 755 mm Hg 48%
18:00 +27°C° 0 mm 11 m/s 755 mm Hg 50%
19:00 +26°C° 0 mm 10 m/s 755 mm Hg 51%
20:00 +26°C° 0 mm 10 m/s 755 mm Hg 51%
21:00 +26°C° 0 mm 9 m/s 756 mm Hg 52%
22:00 +24°C° 0 mm 8 m/s 756 mm Hg 55%
23:00 +24°C° 0 mm 6 m/s 755 mm Hg 57%

16 Agosto, Domenica

Tempo Temperatura Precipitazioni Vento Pressione Umidità
00:00 +23°C° 0 mm 5 m/s 755 mm Hg 60%
01:00 +23°C° 0 mm 5 m/s 755 mm Hg 61%
02:00 +23°C° 0 mm 5 m/s 755 mm Hg 62%
03:00 +23°C° 0 mm 5 m/s 755 mm Hg 62%
04:00 +23°C° 0 mm 5 m/s 755 mm Hg 63%
05:00 +23°C° 0 mm 5 m/s 755 mm Hg 63%
06:00 +23°C° 0 mm 5 m/s 755 mm Hg 63%
07:00 +26°C° 0 mm 6 m/s 755 mm Hg 57%
08:00 +27°C° 0 mm 6 m/s 755 mm Hg 51%
09:00 +29°C° 0 mm 7 m/s 756 mm Hg 45%
10:00 +30°C° 0 mm 7 m/s 755 mm Hg 41%
11:00 +32°C° 0 mm 7 m/s 755 mm Hg 37%
12:00 +33°C° 0 mm 7 m/s 755 mm Hg 33%
13:00 +33°C° 0 mm 7 m/s 755 mm Hg 33%
14:00 +33°C° 0 mm 7 m/s 754 mm Hg 33%
15:00 +33°C° 0 mm 7 m/s 754 mm Hg 33%
16:00 +32°C° 0 mm 7 m/s 754 mm Hg 35%
17:00 +30°C° 0 mm 7 m/s 754 mm Hg 37%
18:00 +29°C° 0 mm 6 m/s 754 mm Hg 39%
19:00 +28°C° 0 mm 6 m/s 754 mm Hg 42%
20:00 +27°C° 0 mm 6 m/s 754 mm Hg 45%
21:00 +26°C° 0 mm 5 m/s 754 mm Hg 48%
22:00 +26°C° 0 mm 6 m/s 754 mm Hg 47%
23:00 +24°C° 0 mm 6 m/s 754 mm Hg 47%
Mostrare altro